Location: Saint-Hippolyte
(43.6394°N, 4.7559°E)
Time: 15:33:53
(UTC+00:00)

CORIOLIS - Pass Details

Date: 24 October 2020
Orbit: 819 x 838 km, 98.7° (Epoch: 24 November)

Event Time Altitude Azimuth Distance (km) Brightness Sun altitude
Rises 17:18:05 0° 168° (SSE) 3,334 7.3 -7.1°
Reaches altitude 10° 17:20:25 10° 170° (S) 2,406 6.6 -7.5°
Maximum altitude 17:25:45 78° 256° (WSW) 842 4.4 -8.4°
Drops below altitude 10° 17:31:08 10° 344° (NNW) 2,427 6.7 -9.4°
Sets 17:33:30 0° 345° (NNW) 3,366 7.4 -9.8°
